Tracking 23610 objects as of 19-Sep-2021
HD Live streaming from Space Station
objects crossing your sky now

SL-8 DEB

Track SL-8 DEB now!
10-day predictions


NORAD ID: 21255
Int'l Code: 1990-111C
Perigee: 739.4 km
Apogee: 759.8 km
Inclination: 74.0 °
Period: 99.7 minutes
Semi major axis: 7120 km
RCS: 0.0095 m2 (small)
Launch date: December 10, 1990
Source: Commonwealth of Independent States (former USSR) (CIS)
Launch site: PLESETSK MISSILE AND SPACE COMPLEX (PKMTR)

Note: This is SATELLITE DEBRIS
aabbcc
Your satellite tracking list
Your tracking list is empty




NASA's NSSDC Master Catalog

Two Line Element Set (TLE):
1 21255U 90111C   21262.15539995  .00000208  00000-0  67395-4 0  9990
2 21255  74.0390  38.4012 0014344 257.3871 275.6335 14.44869001614916
Source of the keplerian elements: AFSPC